Tracking 30072 objects as of 14-Jan-2025
HD Live streaming from Space Station
objects crossing your sky now

STARLINK-2713

Track STARLINK-2713 now!
10-day predictions
STARLINK-2713 is classified as:


NORAD ID: 48602
Int'l Code: 2021-041BB
Perigee: 553.5 km
Apogee: 555.1 km
Inclination: 53.1 °
Period: 95.6 minutes
Semi major axis: 6925 km
RCS: Unknown
Launch date: May 15, 2021
Source: United States (US)
Launch site: AIR FORCE EASTERN TEST RANGE (AFETR)
Your satellite tracking list
Your tracking list is empty




NASA's NSSDC Master Catalog

Two Line Element Set (TLE):
1 48602U 21041BB  25013.81656769 -.00005891  00000-0 -37682-3 0  9991
2 48602  53.0537 201.4953 0001153  81.6876 278.4244 15.06407002203387
Source of the keplerian elements: AFSPC